ALOUETTE 1 (S-27) 1 00424U 62049A 10067.93948789 +.00000033 +00000-0 +28007-4 0 03454 2 00424 080.4633 013.5315 0024340 083.2876 277.1038 13.68729357367916 IUE 1 10637U 78012A 10065.87125718 -.00000221 +00000-0 +10000-3 0 05745 2 10637 043.2608 011.8592 1524454 158.2408 209.0040 01.00055070070089 IRAS 1 13777U 83004A 10067.63041268 -.00000047 +00000-0 -16119-5 0 01341 2 13777 099.0587 263.3943 0022570 189.8487 170.2234 14.00104452054601 EXOS D (AKEBONO) 1 19822U 89016A 10067.44325803 +.00023384 +73412-7 +72546-3 0 04670 2 19822 075.0731 053.9116 2679722 010.5845 354.1598 10.04281826621927 INTERCOSMOS 24 1 20261U 89080A 10067.72233840 +.00000255 +00000-0 +66976-4 0 01104 2 20261 082.5851 288.3964 1216025 092.5435 281.5100 12.53468126932725 COBE 1 20322U 89089A 10067.80888874 -.00000102 +00000-0 -36089-4 0 01377 2 20322 098.9979 072.4881 0009481 103.6233 256.5992 14.04385450040312 HST 1 20580U 90037B 10066.57864224 +.00000570 +00000-0 +30822-4 0 05329 2 20580 028.4687 183.1574 0003395 198.8317 161.2293 15.00913799889472 ROSAT 1 20638U 90049A 10067.88798861 +.00011155 +00000-0 +12730-3 0 09292 2 20638 052.9935 222.6355 0004517 110.4900 249.6591 15.62788850101155 CRRES 1 20712U 90065A 10065.32193257 -.00000584 +00000-0 -34163-3 0 00378 2 20712 018.2601 326.9428 7127726 264.4598 017.9022 02.42813666163465 SARA 1 21578U 91050E 10067.83516693 +.00000156 +00000-0 +50884-4 0 07767 2 21578 098.2626 038.4565 0003716 090.6471 269.5153 14.50532987982782 UARS 1 21701U 91063B 10067.95727964 +.00009212 +00000-0 +11230-3 0 09212 2 21701 056.9733 280.7396 0064798 335.6906 024.1100 15.58858985020458 SAMPEX 1 22012U 92038A 10067.94656043 +.00006750 +00000-0 +16072-3 0 01539 2 22012 081.6382 001.4694 0047015 062.0872 298.5127 15.40209272975145 ORBVIEW 1 (MICROLAB) 1 23547U 95017C 10067.77257619 +.00000043 +00000-0 +24732-4 0 02038 2 23547 069.9827 301.7494 0013928 245.3857 114.5813 14.55567445791117 XTE 1 23757U 95074A 10067.80898839 +.00002170 +00000-0 +61019-4 0 00774 2 23757 022.9829 309.1215 0008220 065.5450 294.5878 15.27742738786286 FAST 1 24285U 96049A 10065.54937542 .00002485 00000-0 21732-3 0 8570 2 24285 082.9673 286.7484 1995987 028.1457 341.4283 11.26820815548075 TRACE 1 25280U 98020A 10067.67046334 +.00001217 +00000-0 +10478-3 0 04598 2 25280 097.6576 277.8023 0024619 086.3113 274.0923 14.98984113650671 SAFIR 2 1 25399U 98043F 10067.75288309 -.00000143 +00000-0 -44410-4 0 05744 2 25399 098.3130 088.4310 0002642 119.6040 240.5397 14.23954481606006 SWAS 1 25560U 98071A 10067.61180413 +.00000075 +00000-0 +17879-4 0 01890 2 25560 069.9004 067.2118 0010859 219.2439 140.7935 14.86967028609674 ASTRID 2 1 25568U 98072B 10067.47978030 +.00000105 +00000-0 +99142-4 0 03106 2 25568 082.9507 144.8120 0026531 044.5869 315.7410 13.72007175562908 ORSTED 1 25635U 99008B 10067.71396798 +.00000048 +00000-0 +19299-4 0 08615 2 25635 096.4666 201.0264 0144695 068.5368 293.1179 14.45863599581965 SUNSAT 1 25636U 99008C 10067.71621875 +.00000049 +00000-0 +20178-4 0 05541 2 25636 096.4725 193.3285 0149410 104.0045 257.7820 14.43491527581264 WIRE 1 25646U 99011A 10067.84211808 +.00015326 +00000-0 +17965-3 0 00606 2 25646 097.2616 343.3472 0004807 205.2811 154.8189 15.61596835616312 ABRIXAS 1 25721U 99022A 10067.47363120 +.00001180 +00000-0 +67246-4 0 07918 2 25721 048.4380 061.7907 0020300 322.6523 037.2991 15.20546559600676 TERRIERS 1 25735U 99026A 10065.23861221 .00000612 00000-0 27932-4 0 9485 2 25735 097.1842 293.0502 0006206 201.3719 158.7250 15.24139381598796 FUSE 1 1 25791U 99035A 10067.64138971 +.00000259 +00000-0 +23610-4 0 06509 2 25791 024.9840 146.6970 0010516 171.9617 188.1066 14.41815465564601 CXO 1 25867U 99040B 10068.58333333 -.00000183 +00000-0 +10000-3 0 04369 2 25867 066.6519 058.3027 8008682 275.2227 359.9148 00.37807070006015 CLEMENTINE 1 25978U 99064B 10067.75546013 +.00000040 +00000-0 +11251-4 0 08924 2 25978 098.1156 152.6613 0010597 352.5502 007.5467 14.85607097555192 XMM 1 25989U 99066A 10068.25000000 +.00000205 +00000-0 +10000-3 0 08197 2 25989 060.1552 094.9048 5990953 107.6958 355.9034 00.50144240007561 TERRA 1 25994U 99068A 10067.83148718 +.00000074 +00000-0 +26488-4 0 05770 2 25994 098.2111 143.9061 0000686 070.2357 289.8899 14.57109947543698 ACRIMSAT 1 26033U 99070B 10067.66507228 +.00000073 +00000-0 +24092-4 0 08977 2 26033 097.9418 305.2282 0029843 086.1793 274.2814 14.60587990544152 IMAGE 1 26113U 00017A 10062.05815188 .00000322 00000-0 10000-3 0 9289 2 26113 091.3892 215.0839 7300516 255.4222 020.3049 01.68637696 61185 DELTA 2 R/B(2) 1 26115U 00017C 10066.25617674 +.00000342 +00000-0 +18564-1 0 07479 2 26115 091.3799 215.2210 7301722 256.0641 019.9524 01.68196206061101 CLUSTER II-FM6 1 26410U 00041A 10067.12500000 +.00001250 +00000-0 +00000-0 0 04601 2 26410 123.3241 207.3039 8784637 041.3686 001.4348 00.44221688005736 CLUSTER II-FM7 1 26411U 00041B 10067.12500000 +.00001248 +00000-0 +00000-0 0 04698 2 26411 123.2750 207.2893 8779887 041.4327 001.6313 00.44220578005823 CLUSTER II-FM5 1 26463U 00045A 10067.12500000 +.00001102 +00000-0 +00000-0 0 04586 2 26463 125.2824 208.5865 8634846 040.0580 001.7800 00.44220422006313 CLUSTER II-FM8 1 26464U 00045B 10067.12500000 +.00000328 +00000-0 +00000-0 0 04520 2 26464 116.9609 196.0317 8812173 033.5389 001.2934 00.44220723005709 MEGSAT 1 1 26546U 00057B 10067.78491607 +.00000080 +00000-0 +27389-4 0 09251 2 26546 064.5593 330.4620 0040262 235.2553 124.4774 14.84310090511459 HETE 2 1 26561U 00061A 10065.33847553 +.00001241 +00000-0 +37178-4 0 05249 2 26561 001.9458 080.9673 0023321 275.4099 084.3373 14.96188066514433 MUNIN 1 26621U 00075C 10067.69610229 +.00000183 +00000-0 +17237-3 0 07867 2 26621 095.4161 317.6526 0717380 075.5975 292.3664 13.03707082442170 ODIN 1 26702U 01007A 10067.66290439 +.00000423 +00000-0 +42984-4 0 09505 2 26702 097.6942 088.7260 0002831 313.8583 046.2401 14.95832043492991 TIMED 1 26998U 01055B 10067.78657624 +.00000246 +00000-0 +33813-4 0 05196 2 26998 074.0735 186.6991 0001914 241.5941 118.5054 14.84142427446772 HESSI 1 27370U 02004A 10067.95782059 +.00000685 +00000-0 +58688-4 0 02726 2 27370 038.0390 034.0877 0015702 181.0158 179.0574 15.02387186443568 INTEGRAL 1 27540U 02048A 10068.25000000 +.00000264 +00000-0 +10000-3 0 09046 2 27540 084.3815 346.3231 8632927 257.8309 356.7534 00.33406742005188 FEDSAT 1 27598U 02056B 10067.62352175 -.00000083 +00000-0 -16834-4 0 00225 2 27598 098.3387 113.1871 0009354 169.2339 190.9032 14.28027274376981 WEOS 1 27599U 02056C 10067.78059014 -.00000031 +00000-0 +41478-5 0 00336 2 27599 098.3591 119.6091 0010017 180.3200 179.7946 14.28586969377142 MICRO LABSAT 1 27600U 02056D 10067.74778477 -.00000068 +00000-0 -10394-4 0 09978 2 27600 098.3517 119.1300 0010827 184.2722 175.8368 14.28880003377222 CORIOLIS 1 27640U 03001A 10067.61827667 +.00000104 +00000-0 +71768-4 0 02092 2 27640 098.7543 075.1218 0014512 020.0445 340.1272 14.18366030371146 CHIPSAT 1 27643U 03002B 10067.70149430 -.00000159 +00000-0 -12481-4 0 03259 2 27643 094.0110 084.6634 0009712 246.3152 113.7050 14.97389845390548 SORCE 1 27651U 03004A 10067.73138340 +.00000172 +00000-0 +36999-4 0 01443 2 27651 039.9971 294.2204 0024925 022.2565 337.9288 14.82276766385553 GALEX 1 27783U 03017A 10067.48436246 +.00000321 +00000-0 +44438-4 0 08890 2 27783 028.9977 090.5752 0004631 172.1050 187.9635 14.59803372366432 MOST 1 27843U 03031D 10067.63661354 -.00000034 +00000-0 +45444-5 0 07902 2 27843 098.7205 076.6555 0010695 108.7505 251.4834 14.20131206346716 QUAKESAT 1 27845U 03031F 10067.47137543 +.00000092 +00000-0 +63201-4 0 07693 2 27845 098.7199 077.3522 0009642 116.7175 243.4994 14.20332162346682 AAU CUBESAT 1 27846U 03031G 10067.01354890 +.00000039 +00000-0 +38173-4 0 07017 2 27846 098.7042 078.3340 0010221 080.4030 279.8274 14.21020122346811 SCISAT 1 1 27858U 03036A 10067.78115389 +.00000179 +00000-0 +31856-4 0 09701 2 27858 073.9360 021.5912 0007580 011.2501 348.8859 14.74842191353726 KAISTSAT 4 1 27945U 03042G 10067.66135207 +.00000015 +00000-0 +11602-4 0 09114 2 27945 097.9104 298.4043 0012950 030.3478 329.8467 14.63175516344257 GP-B 1 28230U 04014A 10067.84690487 +.00000072 +00000-0 +82135-5 0 07311 2 28230 089.9400 156.1443 0001904 067.2986 292.8396 14.76023892316813 DEMETER 1 28368U 04025C 10067.83011126 +.00000167 +00000-0 +35690-4 0 04518 2 28368 097.9759 132.6131 0001329 093.1582 266.9765 14.70124740304609 DOUBLESTAR (TC-2) 1 28382U 04029A 10066.43817066 +.00000023 +00000-0 +10000-3 0 02954 2 28382 089.1567 333.4043 7272192 240.4904 333.1391 02.11748127043210 SWIFT 1 28485U 04047A 10067.64532501 +.00000803 +00000-0 +37614-4 0 05275 2 28485 020.5573 183.7611 0014326 096.4602 263.7467 14.92679942289233 ASTRO E2 1 28773U 05025A 10067.32953642 +.00000602 +00000-0 +40432-4 0 02041 2 28773 031.4048 035.8147 0006606 289.5512 070.4417 15.00969788255926 ASTRO F (AKARI) 1 28939U 06005A 10067.90910397 +.00000098 +00000-0 +31611-4 0 02259 2 28939 098.2542 073.8723 0009365 080.6233 279.6040 14.57603130214654 FORMOSAT 3A 1 29047U 06011A 10067.89727147 +.00000016 +00000-0 +23108-4 0 01839 2 29047 071.9791 202.4479 0051005 048.1396 312.4126 14.27106532205498 FORMOSAT 3B 1 29048U 06011B 10067.64649695 +.00000390 +00000-0 +17471-3 0 02341 2 29048 071.9689 118.1219 0044918 357.5643 002.5255 14.27142644207932 FORMOSAT 3C 1 29049U 06011C 10067.80216201 +.00000361 +00000-0 +16364-3 0 01812 2 29049 072.0197 268.3569 0034687 059.6680 300.7870 14.27155490203731 FORMOSAT 3D 1 29050U 06011D 10067.92687596 +.00001102 +00000-0 +26646-3 0 04648 2 29050 072.0079 062.2811 0054349 284.9398 074.5608 14.54151650209723 FORMOSAT 3E 1 29051U 06011E 10067.83423385 +.00000373 +00000-0 +16522-3 0 02394 2 29051 072.0067 176.8422 0071133 288.7697 070.5677 14.27149232206323 FORMOSAT 3F 1 29052U 06011F 10067.67183555 +.00000360 +00000-0 +16273-3 0 02590 2 29052 072.0333 240.0669 0040761 028.1449 332.1875 14.27162932204609 CLOUDSAT 1 29107U 06016A 10067.85306351 +.00000154 +00000-0 +44315-4 0 02216 2 29107 098.2090 013.0358 0001052 088.5830 271.5490 14.57114434205413 CALIPSO 1 29108U 06016B 10067.85325541 +.00000151 +00000-0 +43453-4 0 02320 2 29108 098.2095 013.0859 0001139 091.5744 268.5574 14.57113636205398 HINODE (SOLAR B) 1 29479U 06041A 10067.68690641 -.00000033 +00000-0 +28034-5 0 01065 2 29479 098.0903 072.0146 0014463 286.0665 073.8926 14.62958577184656 SJ-6C 1 29505U 06046A 10067.85053903 +.00000418 +00000-0 +48098-4 0 07853 2 29505 097.6932 072.8294 0001875 288.7220 071.3795 14.90716143183517 SJ-6D 1 29506U 06046B 10067.81051296 -.00000300 +00000-0 -25565-4 0 07769 2 29506 097.6973 071.7121 0002000 008.6922 351.4327 14.90011574183428 COROT 1 29678U 06063A 10067.85954218 +.00000195 +00000-0 +12981-3 0 00599 2 29678 089.9343 010.0411 0007060 050.9216 309.2596 13.98124797163097 AIM 1 31304U 07015A 10067.76115666 +.00000578 +00000-0 +62011-4 0 09800 2 31304 097.8001 170.9666 0012663 066.1687 294.0878 14.92358288156252 GLAST 1 33053U 08029A 10067.88641624 +.00000279 +00000-0 +00000-0 0 04562 2 33053 025.5846 001.9183 0013970 290.2979 069.6067 15.05019299095803 KORONAS-FOTON 1 33504U 09003A 10065.25845661 .00000000 00000-0 -20022-5 0 3059 2 33504 082.4800 329.6842 0013909 265.5665 094.3976 15.05395751 60139